BCS507 EKCH-EDDB

Flight info

Callsign BCS507
Flight time 0h 47m
Altitude 35000
Route SALLO M44 KOGIM M725 RODEP T280 KETAP KETAP1R
Aircraft A333/H-SDE3GHIJ2J3J5M1RVWXY/LB2D1

Departure

Time 2026-05-07 16:25
Airport Copenhagen Kastrup Airport (EKCH)

Arrival

Time 2026-05-07 17:12
Airport Berlin Brandenburg Airport (EDDB)
Time Latitude Longitude Altitude Speed Heading
2026-05-07 15:56 55.62065 12.67078 28 ft 0 kts 79°
2026-05-07 16:07 55.62064 12.67070 28 ft 4 kts 79°
2026-05-07 16:08 55.62059 12.67023 28 ft 4 kts 79°
2026-05-07 16:08 55.62054 12.66976 28 ft 4 kts 79°
2026-05-07 16:08 55.62048 12.66934 28 ft 4 kts 66°
2026-05-07 16:08 55.62034 12.66898 28 ft 4 kts 24°
2026-05-07 16:09 55.62010 12.66894 28 ft 4 kts 341°
2026-05-07 16:09 55.61985 12.66915 28 ft 4 kts 328°
2026-05-07 16:09 55.61963 12.66938 28 ft 4 kts 340°
2026-05-07 16:09 55.61937 12.66945 28 ft 4 kts 357°
2026-05-07 16:10 55.61910 12.66948 28 ft 4 kts 359°
2026-05-07 16:10 55.61896 12.66948 28 ft 1 kts
2026-05-07 16:10 55.61895 12.66948 28 ft 0 kts
2026-05-07 16:12 55.61897 12.66948 28 ft 1 kts 360°
2026-05-07 16:12 55.61902 12.66938 28 ft 1 kts 316°
2026-05-07 16:13 55.61900 12.66922 28 ft 2 kts 260°
2026-05-07 16:13 55.61894 12.66882 28 ft 5 kts 254°
2026-05-07 16:13 55.61883 12.66812 28 ft 7 kts 255°
2026-05-07 16:13 55.61871 12.66714 28 ft 9 kts 258°
2026-05-07 16:14 55.61858 12.66599 28 ft 10 kts 258°
2026-05-07 16:14 55.61845 12.66491 27 ft 6 kts 258°
2026-05-07 16:14 55.61849 12.66420 27 ft 5 kts 299°
2026-05-07 16:14 55.61884 12.66379 27 ft 7 kts 336°
2026-05-07 16:15 55.61943 12.66340 28 ft 11 kts 340°
2026-05-07 16:15 55.62021 12.66294 28 ft 13 kts 341°
2026-05-07 16:15 55.62115 12.66239 27 ft 16 kts 341°
2026-05-07 16:15 55.62223 12.66161 31 ft 17 kts 336°
2026-05-07 16:16 55.62296 12.66105 27 ft 9 kts 336°
2026-05-07 16:16 55.62326 12.66030 27 ft 7 kts 270°
2026-05-07 16:16 55.62309 12.65942 27 ft 8 kts 250°
2026-05-07 16:16 55.62297 12.65839 27 ft 9 kts 265°
2026-05-07 16:17 55.62298 12.65719 27 ft 10 kts 271°
2026-05-07 16:17 55.62298 12.65585 27 ft 11 kts 270°
2026-05-07 16:17 55.62298 12.65437 27 ft 13 kts 269°
2026-05-07 16:17 55.62293 12.65278 27 ft 13 kts 263°
2026-05-07 16:18 55.62229 12.65186 28 ft 13 kts 199°
2026-05-07 16:18 55.62149 12.65106 28 ft 14 kts 211°
2026-05-07 16:18 55.62064 12.65013 28 ft 15 kts 212°
2026-05-07 16:18 55.61974 12.64910 27 ft 16 kts 213°
2026-05-07 16:19 55.61877 12.64795 27 ft 17 kts 213°
2026-05-07 16:19 55.61774 12.64677 27 ft 18 kts 213°
2026-05-07 16:19 55.61666 12.64552 27 ft 19 kts 213°
2026-05-07 16:19 55.61552 12.64422 28 ft 20 kts 213°
2026-05-07 16:20 55.61434 12.64286 27 ft 21 kts 213°
2026-05-07 16:20 55.61311 12.64144 27 ft 22 kts 213°
2026-05-07 16:20 55.61183 12.63997 27 ft 22 kts 212°
2026-05-07 16:20 55.61050 12.63845 27 ft 23 kts 213°
2026-05-07 16:21 55.60915 12.63690 27 ft 24 kts 213°
2026-05-07 16:21 55.60774 12.63529 27 ft 24 kts 213°
2026-05-07 16:21 55.60660 12.63393 27 ft 13 kts 216°
2026-05-07 16:21 55.60587 12.63293 27 ft 14 kts 221°
2026-05-07 16:22 55.60514 12.63174 27 ft 12 kts 223°
2026-05-07 16:22 55.60474 12.63119 27 ft 7 kts 207°
2026-05-07 16:22 55.60424 12.63129 28 ft 7 kts 150°
2026-05-07 16:22 55.60386 12.63198 28 ft 8 kts 133°
2026-05-07 16:23 55.60352 12.63263 29 ft 2 kts 132°
2026-05-07 16:23 55.60345 12.63277 29 ft 1 kts 132°
2026-05-07 16:23 55.60336 12.63310 30 ft 5 kts 105°
2026-05-07 16:23 55.60348 12.63365 29 ft 5 kts 51°
2026-05-07 16:24 55.60386 12.63420 29 ft 12 kts 40°
2026-05-07 16:24 55.60576 12.63708 27 ft 65 kts 41°
2026-05-07 16:24 55.61062 12.64461 26 ft 120 kts 41°
2026-05-07 16:24 55.61817 12.65638 35 ft 168 kts 41°
2026-05-07 16:25 55.62748 12.67106 501 ft 185 kts 40°
2026-05-07 16:25 55.63705 12.68583 1499 ft 180 kts 39°
2026-05-07 16:25 55.64641 12.69956 2388 ft 172 kts 37°
2026-05-07 16:25 55.65592 12.71329 2881 ft 184 kts 37°
2026-05-07 16:26 55.66638 12.72791 3335 ft 199 kts 36°
2026-05-07 16:26 55.67778 12.74312 3824 ft 212 kts 36°
2026-05-07 16:26 55.68938 12.76053 4301 ft 226 kts 40°
2026-05-07 16:26 55.69714 12.77363 4565 ft 239 kts 44°
2026-05-07 16:27 55.70751 12.80937 5307 ft 258 kts 84°
2026-05-07 16:27 55.70407 12.84081 5982 ft 266 kts 111°
2026-05-07 16:27 55.69439 12.86900 6681 ft 272 kts 131°
2026-05-07 16:27 55.67908 12.88880 7373 ft 277 kts 154°
2026-05-07 16:28 55.66100 12.90129 8138 ft 281 kts 163°
2026-05-07 16:28 55.64208 12.91005 8977 ft 282 kts 162°
2026-05-07 16:28 55.62278 12.91790 9699 ft 288 kts 172°
2026-05-07 16:28 55.60301 12.91557 10390 ft 294 kts 194°
2026-05-07 16:29 55.58449 12.89858 10720 ft 311 kts 219°
2026-05-07 16:29 55.56842 12.87135 10986 ft 329 kts 226°
2026-05-07 16:29 55.55220 12.84084 11379 ft 342 kts 227°
2026-05-07 16:29 55.53539 12.81052 11946 ft 348 kts 221°
2026-05-07 16:30 55.51528 12.78760 12590 ft 352 kts 202°
2026-05-07 16:30 55.49139 12.77849 13280 ft 355 kts 181°
2026-05-07 16:30 55.46665 12.78116 13973 ft 358 kts 174°
2026-05-07 16:30 55.44184 12.78665 14573 ft 361 kts 173°
2026-05-07 16:31 55.41688 12.79246 15164 ft 364 kts 173°
2026-05-07 16:31 55.39166 12.79820 15762 ft 367 kts 173°
2026-05-07 16:31 55.36624 12.80393 16330 ft 370 kts 173°
2026-05-07 16:31 55.34095 12.81366 16899 ft 375 kts 162°
2026-05-07 16:32 55.31724 12.83309 17468 ft 380 kts 148°
2026-05-07 16:32 55.29577 12.86043 18051 ft 383 kts 142°
2026-05-07 16:32 55.27485 12.88988 18559 ft 387 kts 142°
2026-05-07 16:32 55.25386 12.91966 19051 ft 390 kts 142°
2026-05-07 16:33 55.23267 12.94957 19534 ft 392 kts 142°
2026-05-07 16:33 55.21131 12.97954 20034 ft 395 kts 142°
2026-05-07 16:33 55.18972 13.00969 20500 ft 398 kts 142°
2026-05-07 16:33 55.16800 13.03993 20972 ft 400 kts 142°
2026-05-07 16:34 55.14609 13.07035 21440 ft 403 kts 142°
2026-05-07 16:34 55.12408 13.10086 21922 ft 406 kts 142°
2026-05-07 16:34 55.10187 13.13160 22376 ft 408 kts 142°
2026-05-07 16:34 55.07948 13.16252 22819 ft 411 kts 142°
2026-05-07 16:35 55.05699 13.19354 23292 ft 414 kts 143°
2026-05-07 16:35 55.03433 13.22475 23746 ft 416 kts 143°
2026-05-07 16:35 55.01150 13.25614 24085 ft 419 kts 143°
2026-05-07 16:35 54.98852 13.28769 24458 ft 422 kts 143°
2026-05-07 16:36 54.96543 13.31935 24823 ft 423 kts 143°
2026-05-07 16:36 54.95002 13.34026 25081 ft 424 kts 144°
2026-05-07 16:36 54.92533 13.36831 25443 ft 424 kts 154°
2026-05-07 16:36 54.89822 13.38829 25809 ft 424 kts 165°
2026-05-07 16:37 54.86953 13.40036 26176 ft 425 kts 170°
2026-05-07 16:37 54.84036 13.40946 26532 ft 426 kts 172°
2026-05-07 16:37 54.81096 13.41716 26885 ft 428 kts 173°
2026-05-07 16:37 54.78142 13.42436 27233 ft 430 kts 173°
2026-05-07 16:38 54.75171 13.43158 27602 ft 432 kts 173°
2026-05-07 16:38 54.72194 13.43899 27980 ft 433 kts 173°
2026-05-07 16:38 54.69200 13.44667 28333 ft 435 kts 172°
2026-05-07 16:38 54.66195 13.45454 28680 ft 437 kts 172°
2026-05-07 16:39 54.63220 13.46245 29001 ft 439 kts 172°
2026-05-07 16:39 54.60152 13.47064 29330 ft 441 kts 172°
2026-05-07 16:39 54.57110 13.47878 29676 ft 443 kts 172°
2026-05-07 16:39 54.54094 13.48684 30005 ft 445 kts 172°
2026-05-07 16:40 54.51025 13.49501 30307 ft 447 kts 172°
2026-05-07 16:40 54.47948 13.50301 30692 ft 446 kts 173°
2026-05-07 16:40 54.44887 13.51082 31094 ft 444 kts 173°
2026-05-07 16:40 54.41824 13.51854 31356 ft 447 kts 173°
2026-05-07 16:41 54.38736 13.52628 31561 ft 450 kts 173°
2026-05-07 16:41 54.35625 13.53407 31790 ft 453 kts 173°
2026-05-07 16:41 54.32508 13.54188 32090 ft 454 kts 172°
2026-05-07 16:41 54.29385 13.54986 32443 ft 453 kts 172°
2026-05-07 16:42 54.26267 13.55799 32789 ft 453 kts 172°
2026-05-07 16:42 54.23149 13.56619 33139 ft 453 kts 172°
2026-05-07 16:42 54.20053 13.57435 33669 ft 448 kts 172°
2026-05-07 16:42 54.16972 13.58243 33996 ft 449 kts 172°
2026-05-07 16:43 54.13877 13.59049 34244 ft 449 kts 172°
2026-05-07 16:43 54.10783 13.59851 34468 ft 450 kts 172°
2026-05-07 16:43 54.07681 13.60653 34704 ft 451 kts 172°
2026-05-07 16:43 54.04581 13.61453 34943 ft 451 kts 172°
2026-05-07 16:44 54.01469 13.62255 35091 ft 452 kts 172°
2026-05-07 16:44 53.95271 13.63849 35104 ft 449 kts 172°
2026-05-07 16:45 53.89157 13.65626 35106 ft 448 kts 169°
2026-05-07 16:45 53.83048 13.67841 35099 ft 450 kts 168°
2026-05-07 16:46 53.76937 13.70122 35092 ft 449 kts 168°
2026-05-07 16:46 53.70840 13.72338 35101 ft 447 kts 170°
2026-05-07 16:46 53.67753 13.72757 35101 ft 444 kts 182°
2026-05-07 16:47 53.64660 13.72666 35094 ft 445 kts 182°
2026-05-07 16:47 53.58462 13.72190 35097 ft 447 kts 184°
2026-05-07 16:48 53.52256 13.71523 35091 ft 447 kts 184°
2026-05-07 16:48 53.46058 13.70851 35087 ft 444 kts 184°
2026-05-07 16:48 53.42992 13.70529 34696 ft 441 kts 184°
2026-05-07 16:49 53.39933 13.70214 34189 ft 440 kts 184°
2026-05-07 16:49 53.36876 13.69903 33567 ft 440 kts 183°
2026-05-07 16:49 53.33823 13.69595 32941 ft 438 kts 183°
2026-05-07 16:49 53.30793 13.69290 31907 ft 436 kts 183°
2026-05-07 16:50 53.27755 13.68986 30677 ft 439 kts 183°
2026-05-07 16:50 53.24685 13.68678 29330 ft 443 kts 182°
2026-05-07 16:50 53.21629 13.68372 28351 ft 437 kts 182°
2026-05-07 16:50 53.18611 13.68069 27328 ft 432 kts 182°
2026-05-07 16:51 53.15612 13.67769 26286 ft 430 kts 183°
2026-05-07 16:51 53.12639 13.67472 25348 ft 425 kts 183°
2026-05-07 16:51 53.09701 13.67179 24432 ft 421 kts 183°
2026-05-07 16:51 53.06791 13.66889 23660 ft 415 kts 184°
2026-05-07 16:52 53.03993 13.66611 23544 ft 390 kts 184°
2026-05-07 16:52 53.01367 13.66350 23493 ft 366 kts 184°
2026-05-07 16:52 52.98873 13.66102 23085 ft 355 kts 184°
2026-05-07 16:52 52.96457 13.65862 22429 ft 351 kts 184°
2026-05-07 16:53 52.94043 13.65206 21766 ft 346 kts 202°
2026-05-07 16:53 52.92038 13.63117 21146 ft 340 kts 227°
2026-05-07 16:53 52.90698 13.59950 20549 ft 335 kts 242°
2026-05-07 16:53 52.89624 13.56557 20008 ft 331 kts 244°
2026-05-07 16:54 52.88589 13.53221 19479 ft 329 kts 243°
2026-05-07 16:54 52.87523 13.49866 19055 ft 330 kts 243°
2026-05-07 16:54 52.86434 13.46510 18632 ft 332 kts 243°
2026-05-07 16:54 52.85331 13.43156 18175 ft 332 kts 242°
2026-05-07 16:55 52.84218 13.39800 17690 ft 333 kts 242°
2026-05-07 16:55 52.83101 13.36450 17209 ft 333 kts 242°
2026-05-07 16:55 52.81979 13.33098 16737 ft 333 kts 242°
2026-05-07 16:55 52.80857 13.29751 16261 ft 333 kts 242°
2026-05-07 16:56 52.79733 13.26408 15803 ft 333 kts 242°
2026-05-07 16:56 52.78609 13.23069 15360 ft 332 kts 242°
2026-05-07 16:56 52.76366 13.16418 14467 ft 331 kts 242°
2026-05-07 16:57 52.75248 13.13112 14029 ft 328 kts 242°
2026-05-07 16:57 52.74151 13.09872 13553 ft 318 kts 242°
2026-05-07 16:57 52.73087 13.06733 13065 ft 309 kts 242°
2026-05-07 16:57 52.72051 13.03682 12592 ft 300 kts 241°
2026-05-07 16:58 52.71044 13.00718 12176 ft 293 kts 241°
2026-05-07 16:58 52.70051 12.97799 11801 ft 292 kts 241°
2026-05-07 16:58 52.69057 12.94880 11429 ft 291 kts 241°
2026-05-07 16:58 52.68067 12.91974 11039 ft 291 kts 241°
2026-05-07 16:59 52.67077 12.89075 10672 ft 290 kts 240°
2026-05-07 16:59 52.66088 12.86180 10313 ft 290 kts 240°
2026-05-07 16:59 52.65099 12.83290 9930 ft 287 kts 240°
2026-05-07 16:59 52.64125 12.80451 9509 ft 283 kts 240°
2026-05-07 17:00 52.62986 12.77852 9110 ft 279 kts 224°
2026-05-07 17:00 52.61398 12.76103 8722 ft 275 kts 201°
2026-05-07 17:00 52.59542 12.75580 8328 ft 271 kts 176°
2026-05-07 17:00 52.57740 12.76324 7942 ft 267 kts 154°
2026-05-07 17:01 52.56140 12.77823 7583 ft 263 kts 146°
2026-05-07 17:01 52.54622 12.79443 7308 ft 257 kts 145°
2026-05-07 17:01 52.53145 12.81030 7067 ft 250 kts 145°
2026-05-07 17:01 52.51719 12.82549 6820 ft 244 kts 145°
2026-05-07 17:02 52.50315 12.84031 6606 ft 235 kts 145°
2026-05-07 17:02 52.48946 12.85468 6356 ft 232 kts 145°
2026-05-07 17:02 52.47591 12.86888 6095 ft 231 kts 145°
2026-05-07 17:02 52.46241 12.88298 5830 ft 229 kts 145°
2026-05-07 17:03 52.44898 12.89698 5561 ft 228 kts 145°
2026-05-07 17:03 52.43561 12.91090 5378 ft 227 kts 145°
2026-05-07 17:03 52.42228 12.92476 5243 ft 226 kts 145°
2026-05-07 17:03 52.40903 12.93853 5112 ft 226 kts 145°
2026-05-07 17:04 52.39579 12.95228 5000 ft 225 kts 145°
2026-05-07 17:04 52.38257 12.96598 4850 ft 225 kts 145°
2026-05-07 17:04 52.36938 12.97965 4729 ft 224 kts 145°
2026-05-07 17:04 52.35625 12.99325 4602 ft 224 kts 145°
2026-05-07 17:05 52.34311 13.00685 4469 ft 223 kts 145°
2026-05-07 17:05 52.32998 13.02042 4339 ft 223 kts 145°
2026-05-07 17:05 52.31688 13.03398 4216 ft 222 kts 144°
2026-05-07 17:05 52.30546 13.05056 4084 ft 219 kts 128°
2026-05-07 17:06 52.29668 13.07062 3981 ft 216 kts 111°
2026-05-07 17:06 52.29301 13.09408 3976 ft 213 kts 97°
2026-05-07 17:06 52.29111 13.11743 3969 ft 201 kts 95°
2026-05-07 17:06 52.28969 13.13930 3973 ft 187 kts 89°
2026-05-07 17:07 52.29109 13.15981 4003 ft 179 kts 75°
2026-05-07 17:07 52.29497 13.17911 3987 ft 179 kts 68°
2026-05-07 17:07 52.29949 13.19808 3958 ft 179 kts 68°
2026-05-07 17:07 52.30398 13.21697 3756 ft 178 kts 68°
2026-05-07 17:08 52.30839 13.23560 3492 ft 178 kts 68°
2026-05-07 17:08 52.31285 13.25437 3221 ft 177 kts 68°
2026-05-07 17:08 52.31729 13.27303 2960 ft 176 kts 68°
2026-05-07 17:08 52.32170 13.29159 2719 ft 175 kts 68°
2026-05-07 17:09 52.32611 13.31010 2487 ft 175 kts 68°
2026-05-07 17:09 52.33048 13.32851 2234 ft 173 kts 68°
2026-05-07 17:09 52.33485 13.34688 2000 ft 172 kts 68°
2026-05-07 17:09 52.33907 13.36465 1756 ft 163 kts 67°
2026-05-07 17:10 52.34304 13.38135 1525 ft 153 kts 68°
2026-05-07 17:10 52.34673 13.39688 1342 ft 142 kts 68°
2026-05-07 17:10 52.35028 13.41182 1141 ft 141 kts 68°
2026-05-07 17:10 52.35382 13.42676 947 ft 141 kts 68°
2026-05-07 17:11 52.35733 13.44170 738 ft 141 kts 69°
2026-05-07 17:11 52.36093 13.45649 539 ft 139 kts 69°
2026-05-07 17:11 52.36451 13.47118 383 ft 139 kts 71°
2026-05-07 17:11 52.36795 13.48595 210 ft 139 kts 70°
2026-05-07 17:12 52.37124 13.50004 158 ft 119 kts 68°
2026-05-07 17:12 52.37384 13.51101 158 ft 90 kts 68°
2026-05-07 17:12 52.37588 13.51952 158 ft 71 kts 69°
2026-05-07 17:12 52.37723 13.52513 158 ft 31 kts 69°
2026-05-07 17:13 52.37781 13.52754 158 ft 21 kts 68°
2026-05-07 17:13 52.37818 13.52907 158 ft 12 kts 65°
2026-05-07 17:13 52.37878 13.52969 158 ft 10 kts 360°
2026-05-07 17:13 52.37936 13.52936 158 ft 7 kts 339°
2026-05-07 17:14 52.37982 13.52906 158 ft 7 kts 339°
2026-05-07 17:14 52.38028 13.52877 158 ft 7 kts 339°
2026-05-07 17:14 52.38076 13.52847 158 ft 8 kts 339°
2026-05-07 17:14 52.38128 13.52815 158 ft 8 kts 339°
2026-05-07 17:15 52.38186 13.52778 158 ft 9 kts 337°
2026-05-07 17:15 52.38244 13.52720 158 ft 10 kts 324°
2026-05-07 17:15 52.38310 13.52660 158 ft 11 kts 336°
2026-05-07 17:15 52.38387 13.52612 158 ft 12 kts 339°
2026-05-07 17:16 52.38470 13.52559 158 ft 13 kts 339°
2026-05-07 17:16 52.38561 13.52502 158 ft 14 kts 339°
2026-05-07 17:16 52.38626 13.52461 158 ft 10 kts 339°
2026-05-07 17:16 52.38664 13.52437 158 ft 6 kts 339°
2026-05-07 17:17 52.38694 13.52394 158 ft 6 kts 298°
2026-05-07 17:17 52.38705 13.52359 158 ft 2 kts 301°
2026-05-07 17:17 52.38718 13.52342 158 ft 3 kts 325°
2026-05-07 17:17 52.38730 13.52330 158 ft 2 kts 329°
2026-05-07 17:18 52.38741 13.52323 158 ft 0 kts 338°